Joplin Regional Airport
KJLN : now visible

Airfield :











YOU CAN JOIN US ON...

 
LOGIN :

Register | Disclaimer

   EN    FR    IT 

 









Legend :    VFR   Marginal VFR   IFR   Intensive IFR   Very Intensive IFR
Visi :
Ceiling :
>= 8 km
>= 3000ft
5 to 8 km
1000 to 3000 ft
1500m to 5 km
500 to 1000 ft
800 to 1500m
200 to 500 ft
< 800m
< 200 ft
Symbols :   Thunderstorms  Fog  Heavy snow  Heavy precipitations  Wind > 20 kt






- Airport Elevation : 981 ft
- IATA code : JLN


KJLN - Joplin Regional

CURRENT METAR :
  • 261153Z 18010KT 10SM CLR 18/08 A3004 RMK AO2 SLP164 T01780083 10178 20150 53002

EXPIRED METARs :
  • 261053Z 18010KT 10SM CLR 17/08 A3003 RMK AO2 SLP162 T01720083
  • 260953Z AUTO 16010KT 10SM CLR 17/08 A3003 RMK AO2 SLP160 T01670083

TAF KJLN
Valid from the 26 at 12:00 until the 27 at 12:00 UTC


261120Z 2612/2712 18010KT P6SM SKC
FM261500 20014G24KT P6SM SKC
FM270000 19012KT P6SM SKC
FM270700 20010KT P6SM FEW250 WS020/22040KT
KZKC FIR / North America



MET'MAP, your aeronautical weather chart ! - Copyright ORBIFLY December 2007 - Disclaimer

ORBIFLY MET'MAP TEAM :

Programming & Development : Alexandra Zaïnal
Concept & original design : Baudouin d'Aumeries
Assistance for programming : Marc-Olivier Méhu
Technical & hardware support : Manuel Goepfert

Contact : metmap@orbifly.com




SOURCES & CREDITS :

   NOAA       Earth
Advisory